Flag for U.S.A. Weather past 2 weeks in Charleston, South Carolina, U.S.A.

Now
83 °F

Scattered clouds.


Feels Like: 84 °F
Forecast: 69 / 84 °F
Wind: 13 mph from Southeast

Location: Charleston Air Force Base Reporting Station

Current Time: May 28, 2015 at 5:04:28 PM

Latest Report: May 28, 2015 at 3:56 PM


Visibility: 10 mi

Pressure: 30.18 "Hg

Humidity: 50%

Dew point: 62 °F

Location of CharlestonLocation

Historic Weather in Charleston — Graph

°F

Charleston temperature yesterday

Maximum temperature yesterday: 85 °F (at 1:56 PM)
Minimum temperature yesterday: 72 °F (at 5:56 AM)
Average temperature yesterday: 78 °F

Past Weeks' High & Low Weather Summary

 TemperatureHumidityPressure
High91 °F (May 19, 3:56 PM)97% (May 14, 3:56 AM)30.37 "Hg (May 14, 3:56 AM)
Low59 °F (May 24, 5:56 AM)33% (May 21, 5:56 PM)29.80 "Hg (May 21, 4:56 PM)
Average75 °F71%30.18 "Hg
* Reported May 13 3:56 PM — May 28 3:56 PM, Charleston, Weather by CustomWeather, © 2015

Note: Actual official high and low records may vary slightly from our data, if they occured in-between our weather recording intervals... More about our weather records

Advertising

Charleston weather history for previous 24 hours

 ConditionsComfort  
Time TempWeatherWind HumidityBarometerVisibility
3:56 PM
Thu, May 28
83 °FScattered clouds.13 mph50%30.18 "Hg10 mi
2:56 PM84 °FScattered clouds.13 mph49%30.19 "Hg10 mi
1:56 PM83 °FBroken clouds.6 mph55%30.21 "Hg10 mi
12:56 PM83 °FScattered clouds.7 mph57%30.22 "Hg10 mi
11:56 AM82 °FBroken clouds.7 mph58%30.23 "Hg10 mi
10:56 AM81 °FBroken clouds.7 mph62%30.23 "Hg10 mi
9:56 AM79 °FBroken clouds.6 mph67%30.23 "Hg10 mi
8:56 AM77 °FBroken clouds.5 mph74%30.22 "Hg10 mi
7:56 AM74 °FScattered clouds.3 mph85%30.21 "Hg10 mi
6:56 AM68 °FPassing clouds.No wind93%30.20 "Hg10 mi
5:56 AM68 °FPassing clouds.No wind93%30.18 "Hg10 mi
4:56 AM67 °FClear.No wind97%30.18 "Hg10 mi
3:56 AM70 °FClear.No wind90%30.16 "Hg10 mi
2:56 AM69 °FClear.No wind90%30.19 "Hg10 mi
1:56 AM70 °FClear.No wind90%30.19 "Hg10 mi
12:56 AM71 °FPassing clouds.3 mph87%30.21 "Hg10 mi
11:56 PM
Wed, May 27
73 °FPassing clouds.3 mph81%30.22 "Hg10 mi
10:56 PM75 °FPassing clouds.3 mph76%30.21 "Hg10 mi
9:56 PM74 °FPassing clouds.6 mph76%30.21 "Hg10 mi
8:56 PM76 °FScattered clouds.9 mph69%30.20 "Hg10 mi
7:56 PM78 °FBroken clouds.9 mph66%30.20 "Hg10 mi
6:56 PM79 °FScattered clouds.8 mph65%30.20 "Hg10 mi
5:56 PM81 °FScattered clouds.12 mph58%30.19 "Hg10 mi
Weather by CustomWeather, © 2015

See weather overviewHow to use our weather pages